This is the latest recevied weather packets stored in our database for station/object KC5EZZ-2. If no packets are shown the sender has not sent any weather packets the latest 10 day(s).
| Time | Temp. | Humidity | Pressure | Rain* | Wind** | Luminosity | Snow |
|---|---|---|---|---|---|---|---|
| 1776930688 | 20.56° C | - | - | 0 mm | 4.47 m/s, 160° | - | - |
| 1776930389 | 20.56° C | - | - | 0 mm | 3.13 m/s, 162° | - | - |
| 1776930086 | 20.56° C | - | - | 0 mm | 4.02 m/s, 173° | - | - |
| 1776929787 | 20.56° C | - | - | 0 mm | 3.58 m/s, 163° | - | - |
| 1776929487 | 20.56° C | - | - | 0 mm | 3.58 m/s, 170° | - | - |
| 1776929185 | 20.56° C | - | - | 0 mm | 2.68 m/s, 152° | - | - |
| 1776928885 | 20.56° C | - | - | 0 mm | 3.58 m/s, 160° | - | - |
| 1776928586 | 20.56° C | - | - | 0 mm | 2.68 m/s, 139° | - | - |
| 1776928283 | 20.56° C | - | - | 0 mm | 3.58 m/s, 156° | - | - |
| 1776927984 | 20.56° C | - | - | 0 mm | 3.58 m/s, 156° | - | - |
| 1776927684 | 20.56° C | - | - | 0 mm | 3.13 m/s, 172° | - | - |
| 1776927382 | 20.56° C | - | - | 0 mm | 3.58 m/s, 165° | - | - |
| 1776927082 | 20° C | - | - | 0 mm | 2.24 m/s, 148° | - | - |
| 1776926783 | 20° C | - | - | 0 mm | 3.58 m/s, 162° | - | - |
| 1776926481 | 20.56° C | - | - | 0 mm | 2.68 m/s, 194° | - | - |
| 1776926181 | 20.56° C | - | - | 0 mm | 2.68 m/s, 187° | - | - |
| 1776925881 | 20° C | - | - | 0 mm | 2.24 m/s, 188° | - | - |
| 1776925579 | 20° C | - | - | 0 mm | 1.79 m/s, 179° | - | - |
| 1776925280 | 20.56° C | - | - | 0 mm | 0.89 m/s, 148° | - | - |
| 1776924980 | 20.56° C | - | - | 0 mm | 1.79 m/s, 139° | - | - |
| 1776924678 | 20.56° C | - | - | 0 mm | 2.24 m/s, 153° | - | - |
| 1776924378 | 20.56° C | - | - | 0 mm | 2.24 m/s, 139° | - | - |
| 1776924079 | 20.56° C | - | - | 0 mm | 2.24 m/s, 150° | - | - |
| 1776923776 | 20.56° C | - | - | 0 mm | 3.58 m/s, 146° | - | - |
| 1776923477 | 20.56° C | - | - | 0 mm | 2.68 m/s, 145° | - | - |
* Rain latest hour (hover to see other rain measurements)
** Current wind speed in m/s (hover to see current wind gust speed)